Latest Coastal Weather Observations for Truscott

IDW60701

Issued at 4:53 am WST Sunday 25 September 2016 (issued every 10 minutes, with the page automatically refreshed every 10 minutes)

About coastal observations | Map of coastal stations | Coastal observations for WA | Marine services | Other Formats
Station Details ID: 001020 Name: TRUSCOTT Lat: -14.09 Lon: 126.39 Height: 51.0 m
Data from the previous 72 hours. | See also: Recent months at Truscott
Date/Time
WST
Temp
°C
Wind Pressure Rain since
9am
mm
Weather Cloud Vis
km
Sea
Height
m
Swell
Dir  Spd
kts
Gust
kts
hPa Trend Height
m
Period
s
Dir
25/04:30am 27.0 WSW 5 - 1008.0 - 0.0 - Partly cloudy 10 - - - -
25/04:00am 26.6 WSW 4 - 1007.9 - 0.0 - Partly cloudy 10 - - - -
25/03:30am 27.0 WSW 2 - 1008.0 - 0.0 - Partly cloudy 10 - - - -
25/03:00am 27.0 W 4 - 1007.6 - 0.0 - Mostly cloudy 10 - - - -
25/02:30am 27.0 WSW 6 - 1008.0 - 0.0 - Partly cloudy 10 - - - -
25/02:00am 27.1 W 6 - 1008.0 - 0.0 - Cloudy 10 - - - -
25/01:30am 27.0 W 6 - 1008.0 - 0.0 - Cloudy 10 - - - -
25/01:00am 27.1 W 6 - 1008.2 - 0.0 - - 10 - - - -
25/12:30am 27.0 W 5 - 1008.0 - 0.0 - - 10 - - - -
25/12:00am 26.9 W 4 - 1008.6 - 0.0 - - 10 - - - -
 
Date/Time
WST
Temp
°C
Wind Pressure Rain since
9am
mm
Weather Cloud Vis
km
Sea
Height
m
Swell
Dir  Spd
kts
Gust
kts
hPa Trend Height
m
Period
s
Dir
24/11:30pm 27.0 W 4 - 1009.0 - 0.0 - - 10 - - - -
24/11:00pm 27.1 W 3 - 1008.9 - 0.0 - - 10 - - - -
24/10:30pm 27.0 W 5 - 1009.0 - 0.0 - - 10 - - - -
24/10:00pm 27.5 W 4 - 1009.3 - 0.0 - - 10 - - - -
24/09:30pm 28.0 W 4 - 1009.0 - 0.0 - - 10 - - - -
24/09:00pm 28.0 W 6 - 1009.4 - 0.0 - - 10 - - - -
24/08:30pm 28.0 W 7 - 1009.0 - 0.0 - - 10 - - - -
24/08:00pm 28.3 W 6 - 1008.6 - 0.0 - - 10 - - - -
24/07:30pm 29.0 W 7 - 1008.0 - 0.0 - - 10 - - - -
24/07:00pm 28.7 W 9 - 1008.1 - 0.0 - - 10 - - - -
24/06:30pm 29.0 W 8 - 1008.0 - 0.0 - - 10 - - - -
24/06:00pm 29.7 W 7 - 1007.3 - 0.0 - - 10 - - - -
24/05:30pm 30.0 WNW 7 - 1007.0 - 0.0 - - 10 - - - -
24/05:00pm 31.7 WNW 9 - 1006.6 - 0.0 - - 10 - - - -
24/04:30pm 33.0 WNW 10 - 1006.0 - 0.0 - - 10 - - - -
24/04:00pm 32.6 NW 10 - 1005.8 - 0.0 - - 10 - - - -
24/03:30pm 33.0 NW 9 - 1006.0 - 0.0 - - 10 - - - -
24/03:00pm 33.4 NNW 9 - 1005.7 - 0.0 - - 10 - - - -
24/02:30pm 33.0 NNW 10 - 1006.0 - 0.0 - - 10 - - - -
24/02:00pm 32.8 NNW 10 - 1006.2 - 0.0 - - 10 - - - -
24/01:30pm 34.0 NNW 10 - 1006.0 - 0.0 - - 10 - - - -
24/01:00pm 33.0 NW 9 - 1006.6 - 0.0 - - 10 - - - -
24/12:30pm 33.0 NNW 10 - 1007.0 - 0.0 - - 10 - - - -
24/12:00pm 33.3 WNW 10 - 1007.4 - 0.0 - - 10 - - - -
24/11:30am 34.0 WNW 10 - 1008.0 - 0.0 - - 10 - - - -
24/11:00am 33.5 WNW 10 - 1008.5 - 0.0 - - 10 - - - -
24/10:30am 33.0 WNW 9 - 1009.0 - 0.0 - - 10 - - - -
24/10:00am 33.4 SW 7 - 1010.1 - 0.0 - - 10 - - - -
24/09:30am 33.0 SSW 5 - 1010.0 - 0.0 - - 10 - - - -
24/09:00am 31.7 W 6 - 1010.9 - 0.0 - - 10 - - - -
24/08:30am 31.0 W 7 - 1011.0 - 0.0 - - 10 - - - -
24/08:00am 30.1 SW 8 - 1011.1 - 0.0 - - 10 - - - -
24/07:30am 29.0 SW 6 - 1011.0 - 0.0 - - 10 - - - -
24/07:00am 28.1 SSW 5 - 1010.9 - 0.0 - - 10 - - - -
24/06:30am 28.0 SSW 6 - 1011.0 - 0.0 - - 10 - - - -
24/06:00am 26.8 SW 4 - 1010.4 - 0.0 - - 10 - - - -
24/05:30am 27.0 SW 4 - 1010.0 - 0.0 - - 10 - - - -
24/05:00am 26.7 SW 4 - 1009.8 - 0.0 - Partly cloudy 10 - - - -
24/04:30am 27.0 SW 4 - 1009.0 - 0.0 - Partly cloudy 10 - - - -
24/04:00am 27.2 W 6 - 1008.7 - 0.0 - - 10 - - - -
24/03:30am 27.0 W 6 - 1009.0 - 0.0 - Partly cloudy 10 - - - -
24/03:00am 27.3 W 6 - 1008.5 - 0.0 - Partly cloudy 10 - - - -
24/02:30am 27.0 W 7 - 1008.0 - 0.0 - - 10 - - - -
24/02:00am 27.2 W 8 - 1008.5 - 0.0 - - 10 - - - -
24/01:30am 27.0 WNW 5 - 1009.0 - 0.0 - - 10 - - - -
24/01:00am 27.1 WNW 6 - 1008.5 - 0.0 - - 10 - - - -
24/12:30am 27.0 W 5 - 1009.0 - 0.0 - Partly cloudy 10 - - - -
24/12:00am 27.1 W 5 - 1009.2 - 0.0 - - 10 - - - -
 
Date/Time
WST
Temp
°C
Wind Pressure Rain since
9am
mm
Weather Cloud Vis
km
Sea
Height
m
Swell
Dir  Spd
kts
Gust
kts
hPa Trend Height
m
Period
s
Dir
23/11:30pm 27.0 W 4 - 1009.0 - 0.0 - - 10 - - - -
23/11:00pm 27.4 W 4 - 1009.6 - 0.0 - - 10 - - - -
23/10:30pm 28.0 W 5 - 1010.0 - 0.0 - - 10 - - - -
23/10:00pm 27.5 WNW 5 - 1009.8 - 0.0 - - 10 - - - -
23/09:30pm 28.0 WNW 5 - 1010.0 - 0.0 - - 10 - - - -
23/09:00pm 27.9 WNW 6 - 1009.7 - 0.0 - - 10 - - - -
23/08:30pm 28.0 WNW 7 - 1009.0 - 0.0 - - 10 - - - -
23/08:00pm 28.0 WNW 4 - 1009.4 - 0.0 - - 10 - - - -
23/07:30pm 28.0 NW 5 - 1009.0 - 0.0 - - 10 - - - -
23/07:00pm 28.3 NW 6 - 1008.6 - 0.0 - - 10 - - - -
23/06:30pm 29.0 NNW 7 - 1008.0 - 0.0 - - 10 - - - -
23/06:00pm 28.8 NNW 7 - 1007.7 - 0.0 - - 10 - - - -
23/05:30pm 29.0 NW 9 - 1007.0 - 0.0 - - 10 - - - -
23/05:00pm 30.0 NW 8 - 1007.0 - 0.0 - - 10 - - - -
23/04:30pm 31.0 NW 9 - 1007.0 - 0.0 - - 10 - - - -
23/04:00pm 30.7 NW 11 - 1006.5 - 0.0 - - 10 - - - -
23/03:30pm 31.0 NNW 11 - 1006.0 - 0.0 - - 10 - - - -
23/03:00pm 31.1 NNW 11 - 1006.3 - 0.0 - - 10 - - - -
23/02:30pm 32.0 NNW 11 - 1006.0 - 0.0 - - 10 - - - -
23/02:00pm 32.0 NNW 12 - 1006.8 - 0.0 - - 10 - - - -
23/01:30pm 33.0 NNW 9 - 1007.0 - 0.0 - - 10 - - - -
23/01:00pm 34.0 NW 8 - 1007.3 - 0.0 - - 10 - - - -
23/12:30pm 34.0 WNW 10 - 1008.0 - 0.0 - - 10 - - - -
23/12:00pm 33.4 NW 10 - 1008.4 - 0.0 - Mostly clear 10 - - - -
23/11:30am 33.0 W 9 - 1009.0 - 0.0 - - 10 - - - -
23/11:00am 33.1 WNW 10 - 1009.8 - 0.0 - - 10 - - - -
23/10:30am 33.0 WNW 11 - 1010.0 - 0.0 - - 10 - - - -
23/10:00am 31.9 NW 10 - 1010.8 - 0.0 - - 10 - - - -
23/09:30am 32.0 W 9 - 1011.0 - 0.0 - - 10 - - - -
23/09:00am 31.5 W 8 - 1011.5 - 0.0 - Mostly clear 10 - - - -
23/08:30am 31.0 W 7 - 1012.0 - 0.0 - Partly cloudy 10 - - - -
23/08:00am 30.1 SW 7 - 1011.9 - 0.0 - Partly cloudy 10 - - - -
23/07:30am 29.0 SW 7 - 1012.0 - 0.0 - Partly cloudy 10 - - - -
23/07:00am 28.3 WSW 6 - 1011.6 - 0.0 - Partly cloudy 10 - - - -
23/06:30am 28.0 SW 4 - 1011.0 - 0.0 - Partly cloudy 10 - - - -
23/06:00am 26.7 SSW 4 - 1010.8 - 0.0 - Partly cloudy 10 - - - -
23/05:30am 26.0 SW 4 - 1010.0 - 0.0 - Partly cloudy 10 - - - -
23/05:00am 26.7 SW 3 - 1010.2 - 0.0 - Partly cloudy 10 - - - -
23/04:30am 27.0 WSW 3 - 1010.0 - 0.0 - Partly cloudy 10 - - - -
23/04:00am 26.6 WSW 3 - 1009.5 - 0.0 - - 10 - - - -
23/03:30am 27.0 W 4 - 1009.0 - 0.0 - Partly cloudy 10 - - - -
23/03:00am 27.0 W 4 - 1009.2 - 0.0 - Mostly clear 10 - - - -
23/02:30am 27.0 W 4 - 1009.0 - 0.0 - Partly cloudy 10 - - - -
23/02:00am 27.2 W 4 - 1009.4 - 0.0 - Partly cloudy 10 - - - -
23/01:30am 27.0 W 6 - 1009.0 - 0.0 - Partly cloudy 10 - - - -
23/01:00am 27.4 WSW 4 - 1010.0 - 0.0 - Partly cloudy 10 - - - -
23/12:30am 28.0 W 5 - 1010.0 - 0.0 - Partly cloudy 10 - - - -
23/12:00am 27.5 W 4 - 1010.5 - 0.0 - Mostly cloudy 10 - - - -
 
Date/Time
WST
Temp
°C
Wind Pressure Rain since
9am
mm
Weather Cloud Vis
km
Sea
Height
m
Swell
Dir  Spd
kts
Gust
kts
hPa Trend Height
m
Period
s
Dir
22/11:30pm 27.0 WNW 4 - 1011.0 - 0.0 - Partly cloudy 10 - - - -
22/11:00pm 26.9 NW 3 - 1011.0 - 0.0 - - 10 - - - -
22/10:30pm 27.0 WNW 3 - 1011.0 - 0.0 - - 10 - - - -
22/10:00pm 27.2 W 2 - 1011.3 - 0.0 - - 10 - - - -
22/09:30pm 27.0 W 3 - 1011.0 - 0.0 - - 10 - - - -
22/09:00pm 27.7 WNW 3 - 1011.5 - 0.0 - - 10 - - - -
22/08:30pm 28.0 NNW 3 - 1011.0 - 0.0 - - 10 - - - -
22/08:00pm 27.9 NNW 3 - 1011.2 - 0.0 - Partly cloudy 10 - - - -
22/07:30pm 28.0 NW 4 - 1011.0 - 0.0 - Partly cloudy 10 - - - -
22/07:00pm 28.1 NNW 4 - 1010.8 - 0.0 - Partly cloudy 10 - - - -
22/06:30pm 28.0 NNW 5 - 1010.0 - 0.0 - - 10 - - - -
22/06:00pm 28.2 NNW 6 - 1010.2 - 0.0 - - 10 - - - -
22/05:30pm 29.0 NW 8 - 1010.0 - 0.0 - - 10 - - - -
22/05:00pm 29.1 N 8 - 1009.6 - 0.0 - - 10 - - - -
22/04:30pm 30.0 N 8 - 1009.0 - 0.0 - - 10 - - - -
22/04:00pm 30.5 NNW 9 - 1009.1 - 0.0 - - 10 - - - -
22/03:30pm 31.0 N 10 - 1009.0 - 0.0 - - 10 - - - -
22/03:00pm 31.7 NNW 9 - 1008.9 - 0.0 - - 10 - - - -
22/02:30pm 32.0 N 10 - 1009.0 - 0.0 - - 10 - - - -
22/02:00pm 32.6 N 11 - 1009.3 - 0.0 - - 10 - - - -
22/01:30pm 33.0 NW 10 - 1009.0 - 0.0 - - 10 - - - -
22/01:00pm 32.2 NW 11 - 1009.9 - 0.0 - - 10 - - - -
22/12:30pm 32.0 N 11 - 1010.0 - 0.0 - - 10 - - - -
22/12:00pm 32.7 NNW 11 - 1010.1 - 0.0 - - 10 - - - -
22/11:30am 32.0 N 11 - 1011.0 - 0.0 - - 10 - - - -
22/11:00am 33.3 NW 9 - 1010.9 - 0.0 - - 10 - - - -
22/10:30am 33.0 NW 8 - 1011.0 - 0.0 - - 10 - - - -
22/10:00am 32.8 W 8 - 1011.6 - 0.0 - - 10 - - - -
22/09:30am 32.0 WNW 7 - 1012.0 - 0.0 - - 10 - - - -
22/09:00am 31.4 W 5 - 1012.1 - 0.0 - - 10 - - - -
22/08:30am 31.0 W 6 - 1012.0 - 0.0 - - 10 - - - -
22/08:00am 29.9 W 5 - 1012.1 - 0.0 - - 10 - - - -
22/07:30am 29.0 W 6 - 1012.0 - 0.0 - - 10 - - - -
22/07:00am 28.4 W 4 - 1011.8 - 0.0 - Partly cloudy 10 - - - -
22/06:30am 27.0 CALM 0 - 1012.0 - 0.0 - - 10 - - - -
22/06:00am 25.8 E 3 - 1011.5 - 0.0 - - 10 - - - -
22/05:30am 25.0 CALM 0 - 1011.0 - 0.0 - Partly cloudy 10 - - - -
22/05:00am 25.3 SSW 2 - 1010.8 - 0.0 - - 10 - - - -

Other Formats:

Comma delimited format used in spreadsheet applications
http://www.bom.gov.au/fwo/IDW60701/IDW60701.95101.axf

JavaScript Object Notation format (JSON) in row-major order
http://www.bom.gov.au/fwo/IDW60701/IDW60701.95101.json